DECAYED

CZ-6A DEB, 54333 (Decayed)

Orbit data source: Space-Track

CZ-6A DEB, 54333 was space debris in SSO originally from a launch on Fri, 11 Nov 2022 UTC launched from the Taiyaun Space Center, China (TSC). Debris objects in space refer to the collection of defunct objects orbiting the Earth. Examples of debris include non-operational satellites, rocket bodies, and fragments generated from explosions, collisions, or faulty payload assembly.

Not visible in the next 10 days
Identifier
54333, 2022-151CC
Orbit
Decayed
Country
Flag of CNCN / PRC
Related business
Manufacturer
SAST
Mission
Decayed spacecraft
Bus & Motor
Unknown
Mass
Unknown
Launch date (UTC)
2022-11-11 (4 years ago)
Launch vehicle
Unknown
Launch site
Taiyaun Space Center, China (TSC)
Object type
Payload
Rocket body
Debris
Shape & HBR
Unknown shape, 0.1 m
Radar Cross Section
Small (<0.1 m²)

Expand to show TLE details & history
Last TLE update: 3 months ago

TLE from 3 months ago
0 CZ-6A DEB
1 54333U 22151CC  26145.23084223  .04047539  23804-1  12578-1 0  9995
2 54333  98.6064 250.5828 0028684 277.0492  82.7518 15.95148766188901
Epoch: 2026-05-25T05:32Z
TLE epoch observation values (Epoch: 2026-05-25T05:32:24.768Z)
Latitude
-0.00003°
Longitude
-75.342°
Altitude
288.694 km
Speed
7.736 km/s
True Right ascension
16h 42m 19s
True Declination
0° 00' 00"
Sunlit
Object was in full shadow at epoch
Visualization orbit readout
Latitude
Unknown
Longitude
Unknown
Altitude
Unknown
Speed
Unknown
Apparent Right ascension
Unknown
Apparent Declination
Unknown
Sunlit
N/A
Visualization observer readout
Local Sidereal Time
01:12:32
Azimuth
Unknown
Elevation
Unknown
Doppler factor
Unknown
Orbital elements
Apogee altitude
303.936 km
Perigee altitude
265.711 km
Semi-major axis
6,662.961 km
Eccentricity
0.00287
Inclination
98.6064°
RAAN
250.5828°
Arg. of periapsis
277.0492°
True anomaly
83.07801°
Mean anomaly
82.7518°
Eccentric anomaly
82.91489°
Mean motion
3.99064 °/min
Orbital period
90.21 mins
BSTAR
0.012578
Loading maneuver chart data...
Computing Atmospheric mass density...
Loading historical data...
Loading historical data...
Loading historical data...
Loading historical data...
Loading historical data...
Loading historical data...
Loading historical data...

Documentation

Showing up to 5 results
|